Regional Weather Roundup
Issued by NWS

Home | Current Version | Previous Version | Text Only | Print | Product List | Glossary On
Versions: 1 2 3 4 5 6 7 8 9 10 11 12 13 14 15 16 17 18 19 20 21 22 23 24 25 26 27 28 29 30 31 32 33 34 35 36 37 38 39 40 41 42 43 44 45 46 47 48 49 50
850
ASUS45 KREV 050210
RWRNV
NEVADA REGIONAL WEATHER ROUNDUP
NATIONAL WEATHER SERVICE RENO NV
600 PM PST SUN DEC 04 2016

NOTE: "FAIR" INDICATES FEW OR NO CLOUDS BELOW 12,000 FEET WITH NO
SIGNIFICANT WEATHER AND/OR OBSTRUCTIONS TO VISIBILITY.

NVZ001-003-004-050300-
WESTERN NEVADA

CITY           SKY/WX    TMP DP  RH WIND       PRES   REMARKS
RENO           CLOUDY    53  18  25 VRB3      29.99F
CARSON CITY    CLOUDY    50  18  27 N7        30.04S
MINDEN         FAIR      48  18  29 SE3       30.03S
PYRAMID LAKE     N/A     46 N/A N/A W6          N/A
FALLON         CLOUDY    40  18  41 NE6       29.98R
LOVELOCK       MOCLDY    34  21  59 CALM      29.97F
HAWTHORNE        N/A     45  21  39 CALM      29.98F
$$

NVZ002-CAZ072-073-050300-
NORTHERN AND CENTRAL SIERRA

CITY           SKY/WX    TMP DP  RH WIND       PRES   REMARKS
S. LAKE TAHOE  MOCLDY    43  25  49 S12G18    30.11R
TRUCKEE        CLOUDY    36  23  60 CALM      30.09S
SQUAW VLY 8000   N/A     32  21  64 SW15        N/A
SUSANVILLE     CLOUDY    45  32  61 NW13      30.01R
MAMMOTH LAKES  FAIR      51   9  18 W15       30.11F
BRIDGEPORT       N/A     45  15  30 SW13G20   30.07F
$$

NVZ030-031-036-050300-
NORTHERN NEVADA

CITY           SKY/WX    TMP DP  RH WIND       PRES   REMARKS
ELKO           CLOUDY    38  22  52 CALM      29.90F
WINNEMUCCA     CLOUDY    50  20  30 SW15      29.90F
WENDOVER       MOCLDY    34  18  51 CALM      29.87F
$$

NVZ035-037-050300-
CENTRAL NEVADA

CITY           SKY/WX    TMP DP  RH WIND       PRES   REMARKS
ELY            CLEAR     31  17  56 S6        29.96F
EUREKA           N/A     45  18  34 W13       29.95F
$$

NVZ013-014-050300-
SOUTH CENTRAL NEVADA

CITY           SKY/WX    TMP DP  RH WIND       PRES   REMARKS
TONOPAH        MOCLDY    35  21  56 N6        30.02F
$$

NVZ017-020-022-050300-
SOUTHERN NEVADA

CITY           SKY/WX    TMP DP  RH WIND       PRES   REMARKS
LAS VEGAS      MOCLDY    54  16  22 S3        29.99F
N. LAS VEGAS   PTCLDY    52  16  24 CALM      29.99F
NELLIS AFB     PTCLDY    50  14  23 NW5       29.99F
HENDERSON      PTCLDY    48  17  29 S6        30.02F
MERCURY        PTCLDY    47  15  27 E5        29.99F
$$




USA.gov is the U.S. government's official web portal to all federal, state and local government web resources and services.